Weather History for Imperial, CA

Change the Weather History Date:

Wednesday, November 21, 2012

  Actual Average Record
Temperature  
Mean Temperature 64 °F -  
Max Temperature 80 °F 74 °F 89 °F (1950)
Min Temperature 48 °F 47 °F 34 °F (1956)
Degree Days  
Heating Degree Days 1    
Growing Degree Days 14 (Base 50)    
Moisture  
Dew Point 40 °F    
Average Humidity 47    
Maximum Humidity 68    
Minimum Humidity 21    
Precipitation  
Precipitation 0.00 in - - ()
Sea Level Pressure  
Sea Level Pressure 29.98 in    
Wind  
Wind Speed 3 mph (West)    
Max Wind Speed 7 mph    
Max Gust Speed -    
Visibility 10 miles    
Events      
Averages and records for this station are not official NWS values.
T = Trace of Precipitation, MM = Missing Value Source: NWS Daily Summary

Daily Weather History Graph

Daily Weather History Graph

Search for Another Location

Airport:

Trip Planner

Search our weather history database for the weather conditions in past years. The results will help you decide how hot, cold, wet, or windy it might be!

Date:

Astronomy

Nov. 21, 2012 Rise Set
Actual Time 6:18 AM PST 4:37 PM PST
Civil Twilight 5:52 AM PST 5:04 PM PST
Nautical Twilight 5:21 AM PST 5:34 PM PST
Astronomical Twilight 4:52 AM PST 6:04 PM PST
Moon 12:38 PM PST (11/21) 12:01 AM PST (11/21)
Length of Visible Light 11h 12m
Length of Day
10h 19m
Waxing Gibbous, 63% of the Moon is Illuminated
Nov 21
Waxing Gibbous
Nov 28
Full
Dec 6
Last Quarter
Dec 13
New
Dec 19
First Quarter

Hourly Weather History & Observations

Time (PST) Temp. Dew Point Humidity Pressure Visibility Wind Dir Wind Speed Gust Speed Precip Events Conditions
12:53 AM 51.1 °F 37.0 °F 59% 29.98 in 10.0 mi WSW 5.8 mph - N/A   Clear
1:53 AM 50.0 °F 37.9 °F 63% 29.98 in 10.0 mi WSW 5.8 mph - N/A   Clear
2:53 AM 48.9 °F 37.0 °F 64% 29.98 in 10.0 mi Calm Calm - N/A   Clear
3:53 AM 48.0 °F 36.0 °F 63% 29.97 in 10.0 mi WSW 3.5 mph - N/A   Clear
4:53 AM 48.0 °F 36.0 °F 63% 29.98 in 10.0 mi Calm Calm - N/A   Clear
5:53 AM 48.0 °F 37.9 °F 68% 30.00 in 10.0 mi Calm Calm - N/A   Clear
6:53 AM 50.0 °F 37.9 °F 63% 30.02 in 10.0 mi West 6.9 mph - N/A   Clear
7:53 AM 55.9 °F 44.1 °F 64% 30.04 in 10.0 mi West 5.8 mph - N/A   Clear
8:53 AM 64.9 °F 44.1 °F 47% 30.04 in 10.0 mi West 4.6 mph - N/A   Clear
9:53 AM 71.1 °F 41.0 °F 34% 30.04 in 10.0 mi WNW 3.5 mph - N/A   Clear
10:53 AM 73.9 °F 41.0 °F 30% 30.01 in 10.0 mi West 4.6 mph - N/A   Clear
11:53 AM 75.9 °F 41.0 °F 29% 29.98 in 10.0 mi Calm Calm - N/A   Clear
12:53 PM 79.0 °F 39.0 °F 24% 29.95 in 10.0 mi West 4.6 mph - N/A   Clear
1:53 PM 80.1 °F 37.9 °F 22% 29.94 in 10.0 mi East 3.5 mph - N/A   Clear
2:53 PM 79.0 °F 36.0 °F 21% 29.94 in 10.0 mi Calm Calm - N/A   Clear
3:53 PM 79.0 °F 39.0 °F 24% 29.93 in 10.0 mi East 3.5 mph - N/A   Clear
4:53 PM 73.9 °F 41.0 °F 30% 29.93 in 10.0 mi Calm Calm - N/A   Clear
5:53 PM 69.1 °F 39.9 °F 35% 29.94 in 10.0 mi Calm Calm - N/A   Clear
6:53 PM 64.0 °F 42.1 °F 45% 29.95 in 7.0 mi Calm Calm - N/A   Clear
7:53 PM 63.0 °F 36.0 °F 37% 29.96 in 10.0 mi Calm Calm - N/A   Clear
8:53 PM 55.9 °F 44.1 °F 64% 29.96 in 10.0 mi WNW 3.5 mph - N/A   Clear
9:53 PM 55.9 °F 42.1 °F 60% 29.97 in 10.0 mi Calm Calm - N/A   Clear
10:53 PM 55.0 °F 41.0 °F 59% 29.97 in 10.0 mi Calm Calm - N/A   Clear
11:53 PM 55.0 °F 39.0 °F 55% 29.97 in 10.0 mi West 6.9 mph - N/A   Clear